Погода в Среднем Кадаме

Россия / Республика Марий Эл     56°55′42″N   48°23′46″E
темп.,
°C
ветер,
м/с
пор.,
м/с
влажн.,
%
обл.,
%
осадки,
мм/ч
давл.,
гПа
погр.,
м
11 мая, вт
вт1100:00+10с4897100 0.0 1025216
03:00+9ссв599796 0.0 1026259
06:00+10св5795100 0.0 1027307
09:00+14св568343 0.0 1028473
12:00+19св44665 0.0 1028761
15:00+21св33615 0.0 10281024
18:00+19св35723 0.0 1028178
21:00+14всв47871 0.0 1029108
12 мая, ср
ср1200:00+13всв35872 0.0 102990
03:00+12всв35890 0.0 102975
06:00+14св46800 0.0 1030191
09:00+19всв45643 0.0 1029473
12:00+23вюв45541 0.0 10281195
15:00+24юв354131 0.0 10272341
18:00+22юв22538 0.0 102715
21:00+19юв1159100 0.0 102711
13 мая, чт
чт1300:00+17в346260 0.0 102752
03:00+14вюв33655 0.0 102840
06:00+16вюв37650 0.0 1027166
09:00+22юв57506 0.0 1027580
12:00+24ююв57395 0.0 10262181
15:00+24ююв5637100 0.0 10251879
18:00+21ююв365980 0.0 1024150
21:00+17ююв346782 0.0 102461
14 мая, пт
пт1400:00+17юв386999 0.0 1023156
03:00+16юв4107193 0.1 1023180
06:00+17ююв5117089 0.0 1023290
09:00+22ююв6104748 0.0 1022743
12:00+25ю71037100 0.0 10211427
15:00+24ююз6948100 0.0 10201383
18:00+21ю486468 0.0 1020272
21:00+17юз3584100 0.0 102082
15 мая, сб
сб1500:00+16ююз339070 0.0 102035
03:00+15ю33915 0.2 102031
06:00+17ююв37756 0.0 1020201
09:00+22ю6950100 0.1 1019535
12:00+26ююз7103820 0.0 10181029
15:00+26ююз6104397 0.0 10171307
18:00
21:00+18ю5146110 0.0 1017252